Location: Lynch Observatory
(39.9540°N, 75.1861°W)
Time: 02:33:03
(UTC-04:00)

NANOSAT C BR1 - Pass Details

Date: 19 April 2024
Orbit: 556 x 561 km, 98.1° (Epoch: 19 May)

Event Time Altitude Azimuth Distance (km) Brightness Sun altitude
Rises 04:42:03 0° 15° (NNE) 2,768 ? -17.3°
Reaches altitude 10° 04:44:12 10° 17° (NNE) 1,868 ? -17.0°
Maximum altitude 04:48:15 72° 102° (ESE) 600 ? -16.3°
Enters shadow 04:51:42 14° 186° (S) 1,634 ? -15.8°
